Folgueroles





Hora UTC 09:15
Temperatura 2.8 ºC
Humitat 92.0 %
Pressió 1028.1 hPa
Pluja 0.0 mm
Velocitat vent 0.0 km/h
Direcció vent E

Dades diàries 2020-02-20



Hora UTC (hivern +1h; estiu +2h)
Temperatura (ºC) Humitat (%) Pressió (hPa) Velocitat vent (km/h) Precipitació (mm)
Hora UTC Aire Humitat Pressió Vel. Dir. Vel. Max Dir. Intent. màx 5 min.
00:05 2.4 89.0 1029.3 0.0 SSE 0.0 0.0
00:10 2.4 89.0 1029.2 0.0 SSE 0.0 0.0
00:15 2.4 90.0 1029.2 1.6 SSE 3.2 0.0
00:20 2.4 89.0 1029.1 0.0 SSE 3.2 0.0
00:25 2.3 89.0 1028.9 0.0 SSE 1.6 0.0
00:30 2.2 89.0 1029.0 0.0 SSE 0.0 0.0
00:35 2.1 89.0 1028.9 0.0 SSE 0.0 0.0
00:40 2.2 90.0 1029.0 0.0 SSE 0.0 0.0
00:45 2.1 90.0 1029.1 0.0 SSE 0.0 0.0
00:50 2.1 90.0 1029.1 0.0 SSE 0.0 0.0
00:55 2.1 90.0 1029.1 0.0 SSE 0.0 0.0
01:00 2.1 90.0 1029.0 0.0 SSE 0.0 0.0
01:05 1.9 90.0 1029.0 0.0 SSE 0.0 0.0
01:10 1.9 90.0 1028.9 0.0 SSE 0.0 0.0
01:15 1.8 90.0 1028.7 0.0 SSE 1.6 0.0
01:20 1.7 89.0 1028.6 0.0 SSE 1.6 0.0
01:25 1.6 90.0 1028.6 0.0 SSE 0.0 0.0
01:30 1.6 90.0 1028.6 0.0 SSE 0.0 0.0
01:35 1.6 90.0 1028.5 0.0 SSE 0.0 0.0
01:40 1.5 91.0 1028.4 0.0 SSE 0.0 0.0
01:45 1.6 91.0 1028.4 0.0 SSE 0.0 0.0
01:50 1.6 91.0 1028.3 0.0 SSE 0.0 0.0
01:55 1.6 91.0 1028.2 0.0 SSE 0.0 0.0
02:00 1.6 91.0 1028.3 0.0 SSE 0.0 0.0
02:05 1.4 91.0 1028.4 0.0 SSE 0.0 0.0
02:10 1.4 91.0 1028.3 0.0 SSE 0.0 0.0
02:15 1.3 91.0 1028.3 0.0 SSE 0.0 0.0
02:20 1.3 91.0 1028.2 0.0 SSE 0.0 0.0
02:25 1.3 91.0 1028.1 0.0 SSE 0.0 0.0
02:30 1.3 91.0 1028.1 0.0 SSE 0.0 0.0
02:35 1.2 91.0 1028.1 0.0 SSE 0.0 0.0
02:40 1.2 91.0 1028.1 0.0 SSE 0.0 0.0
02:45 1.2 91.0 1027.9 0.0 SSE 0.0 0.0
02:50 1.1 91.0 1027.9 0.0 SSE 0.0 0.0
02:55 1.1 91.0 1027.8 0.0 SSE 0.0 0.0
03:00 0.9 91.0 1027.8 0.0 SSE 0.0 0.0
03:05 0.8 91.0 1027.7 0.0 SSE 0.0 0.0
03:10 0.8 91.0 1027.7 0.0 SSE 0.0 0.0
03:15 0.7 91.0 1027.6 0.0 SSE 0.0 0.0
03:20 0.7 91.0 1027.5 0.0 SSE 0.0 0.0
03:25 0.7 92.0 1027.6 0.0 SSE 0.0 0.0
03:30 0.7 92.0 1027.6 0.0 SSE 0.0 0.0
03:35 0.8 92.0 1027.6 0.0 SSE 0.0 0.0
03:40 0.8 92.0 1027.5 0.0 SSE 0.0 0.0
03:45 0.8 92.0 1027.5 0.0 SSE 0.0 0.0
03:50 0.8 92.0 1027.5 0.0 SSE 0.0 0.0
03:55 0.7 92.0 1027.5 0.0 SSE 0.0 0.0
04:00 0.6 92.0 1027.5 0.0 SSE 0.0 0.0
04:05 0.0
04:10 0.6 92.0 1027.4 0.0 SSE 0.0 0.0
04:15 0.6 92.0 1027.4 0.0 SSE 0.0 0.0
04:20 0.5 92.0 1027.3 0.0 SSE 0.0 0.0
04:25 0.4 91.0 1027.4 0.0 SSE 0.0 0.0
04:30 0.4 92.0 1027.4 0.0 SSE 0.0 0.0
04:35 0.3 92.0 1027.6 0.0 SSE 0.0 0.0
04:40 0.3 92.0 1027.6 0.0 SSE 0.0 0.0
04:45 0.3 92.0 1027.6 0.0 SSE 0.0 0.0
04:50 0.3 92.0 1027.6 0.0 SSE 0.0 0.0
04:55 0.3 92.0 1027.5 0.0 SSE 0.0 0.0
05:00 0.3 92.0 1027.4 0.0 SSE 0.0 0.0
05:05 0.0
05:10 0.3 93.0 1027.4 0.0 SSE 0.0 0.0
05:15 0.3 93.0 1027.4 0.0 SSE 0.0 0.0
05:20 0.2 92.0 1027.3 0.0 SSE 0.0 0.0
05:25 0.2 92.0 1027.3 0.0 SSE 0.0 0.0
05:30 0.2 92.0 1027.3 0.0 SSE 0.0 0.0
05:35 0.1 92.0 1027.2 0.0 SSE 0.0 0.0
05:40 0.1 92.0 1027.2 0.0 SSE 0.0 0.0
05:45 0.1 92.0 1027.3 0.0 SSE 0.0 0.0
05:50 0.1 92.0 1027.4 0.0 SSE 0.0 0.0
05:55 0.1 92.0 1027.3 0.0 SSE 0.0 0.0
06:00 -0.1 92.0 1027.4 0.0 SSE 0.0 0.0
06:05 0.0
06:10 -0.1 93.0 1027.2 0.0 SSE 0.0 0.0
06:15 0.0 93.0 1027.2 0.0 SSE 0.0 0.0
06:20 0.1 93.0 1027.2 0.0 SSE 0.0 0.0
06:25 0.1 93.0 1027.3 0.0 SSE 0.0 0.0
06:30 0.0 92.0 1027.3 0.0 SSE 0.0 0.0
06:35 -0.1 92.0 1027.3 0.0 SSE 0.0 0.0
06:40 -0.1 93.0 1027.3 0.0 SSE 0.0 0.0
06:45 0.0 93.0 1027.3 0.0 SSE 0.0 0.0
06:50 0.0 93.0 1027.3 0.0 SSE 0.0 0.0
06:55 0.0 93.0 1027.4 0.0 SSE 0.0 0.0
07:00 0.0 93.0 1027.5 0.0 SSE 0.0 0.0
07:05 0.0
07:10 -0.1 93.0 1027.5 0.0 SSE 0.0 0.0
07:15 -0.1 93.0 1027.6 0.0 SSE 0.0 0.0
07:20 -0.1 93.0 1027.7 0.0 SSE 0.0 0.0
07:25 -0.1 93.0 1027.7 0.0 SSE 0.0 0.0
07:30 0.0 93.0 1027.8 0.0 SSE 0.0 0.0
07:35 0.1 93.0 1027.8 0.0 SSE 0.0 0.0
07:40 0.1 93.0 1027.7 0.0 SSE 0.0 0.0
07:45 0.1 93.0 1027.7 0.0 SSE 0.0 0.0
07:50 0.2 93.0 1027.7 0.0 SSE 0.0 0.0
07:55 0.3 93.0 1027.8 0.0 E 0.0 0.0
08:00 0.6 94.0 1027.9 0.0 E 3.2 0.0
08:05 0.0
08:10 1.0 94.0 1027.9 0.0 E 0.0 0.0
08:15 1.1 94.0 1027.9 0.0 E 0.0 0.0
08:20 1.2 94.0 1027.9 0.0 E 0.0 0.0
08:25 1.2 94.0 1028.0 1.6 E 3.2 0.0
08:30 1.3 94.0 1028.0 0.0 E 3.2 0.0
08:35 1.4 94.0 1027.9 0.0 E 0.0 0.0
08:40 1.7 94.0 1027.9 0.0 E 3.2 0.0
08:45 1.8 94.0 1027.9 0.0 E 3.2 0.0
08:50 1.9 94.0 1028.0 0.0 E 1.6 0.0
08:55 2.1 93.0 1028.0 0.0 E 0.0 0.0
09:00 2.3 93.0 1028.0 1.6 E 3.2 0.0
09:05 0.0
09:10 2.7 92.0 1028.1 0.0 E 3.2 0.0
09:15 2.8 92.0 1028.1 0.0 E 1.6 0.0
Màxima 13.1 94.0 1029.3 1.6 E 3.2 0.0
Mínima -0.1 89.0 1027.2
Total 0.0